Time,TemperatureF,DewpointF,PressureIn,WindDirection,WindDirectionDegrees,WindSpeedMPH,WindSpeedGustMPH,Humidity,HourlyPrecipIn,Conditions,Clouds,dailyrainin,SoftwareType,DateUTC
2013-03-01 02:09:00,45.9,35.6,30.08,NNW,332,0.0,7.0,67,0.00,,,0.00,meteohub,2013-03-01 08:09:00,
2013-03-01 02:15:00,45.7,35.4,30.09,NE,36,1.0,6.0,67,0.00,,,0.00,meteohub,2013-03-01 08:15:00,
2013-03-01 02:20:00,45.5,35.6,30.08,NNE,33,0.0,5.0,68,0.00,,,0.00,meteohub,2013-03-01 08:20:00,
2013-03-01 02:25:00,45.1,35.2,30.08,NNE,13,2.0,5.0,68,0.00,,,0.00,meteohub,2013-03-01 08:25:00,
2013-03-01 02:30:00,45.1,35.2,30.08,North,0,3.0,5.0,68,0.00,,,0.00,meteohub,2013-03-01 08:30:00,
2013-03-01 02:35:00,45.1,35.2,30.07,North,355,0.0,6.0,68,0.00,,,0.00,meteohub,2013-03-01 08:35:00,
2013-03-01 02:40:00,45.1,35.2,30.07,North,355,2.0,6.0,68,0.00,,,0.00,meteohub,2013-03-01 08:40:00,
2013-03-01 02:45:00,45.0,35.1,30.07,North,350,0.0,6.0,68,0.00,,,0.00,meteohub,2013-03-01 08:45:00,
2013-03-01 02:50:00,44.8,35.2,30.07,NNE,29,0.0,5.0,69,0.00,,,0.00,meteohub,2013-03-01 08:50:00,
2013-03-01 02:55:00,44.4,34.9,30.07,NNE,29,0.0,4.0,69,0.00,,,0.00,meteohub,2013-03-01 08:55:00,
2013-03-01 03:00:00,44.2,35.1,30.07,NNW,331,0.0,4.0,70,0.00,,,0.00,meteohub,2013-03-01 09:00:00,
2013-03-01 03:05:00,44.1,35.2,30.08,North,355,0.0,4.0,71,0.00,,,0.00,meteohub,2013-03-01 09:05:00,
2013-03-01 03:10:00,43.9,35.1,30.08,North,11,2.0,5.0,71,0.00,,,0.00,meteohub,2013-03-01 09:10:00,
2013-03-01 03:15:00,43.5,34.7,30.08,North,349,0.0,5.0,71,0.00,,,0.00,meteohub,2013-03-01 09:15:00,
2013-03-01 03:20:00,43.2,34.7,30.07,North,5,1.0,5.0,72,0.00,,,0.00,meteohub,2013-03-01 09:20:00,
2013-03-01 03:25:00,43.0,34.5,30.07,North,355,1.0,5.0,72,0.00,,,0.00,meteohub,2013-03-01 09:25:00,
2013-03-01 03:30:00,42.8,34.7,30.07,NNE,15,1.0,5.0,73,0.00,,,0.00,meteohub,2013-03-01 09:30:00,
2013-03-01 03:35:00,42.6,34.5,30.06,North,5,0.0,3.0,73,0.00,,,0.00,meteohub,2013-03-01 09:35:00,
2013-03-01 03:40:00,42.4,34.3,30.06,NW,309,1.0,3.0,73,0.00,,,0.00,meteohub,2013-03-01 09:40:00,
2013-03-01 03:45:00,42.1,34.3,30.06,North,5,0.0,3.0,74,0.00,,,0.00,meteohub,2013-03-01 09:45:00,
2013-03-01 03:50:00,42.1,34.7,30.06,NNW,336,2.0,4.0,75,0.00,,,0.00,meteohub,2013-03-01 09:50:00,
2013-03-01 03:55:00,42.1,34.7,30.07,NNW,348,0.0,5.0,75,0.00,,,0.00,meteohub,2013-03-01 09:55:00,
2013-03-01 04:00:00,41.9,34.5,30.07,NW,325,0.0,5.0,75,0.00,,,0.00,meteohub,2013-03-01 10:00:00,
2013-03-01 04:05:00,41.7,34.3,30.08,NNW,334,3.0,4.0,75,0.00,,,0.00,meteohub,2013-03-01 10:05:00,
2013-03-01 04:10:00,41.7,34.3,30.08,North,5,1.0,5.0,75,0.00,,,0.00,meteohub,2013-03-01 10:10:00,
2013-03-01 04:15:00,41.9,34.5,30.08,NNW,342,1.0,5.0,75,0.00,,,0.00,meteohub,2013-03-01 10:15:00,
2013-03-01 04:20:00,41.9,34.5,30.08,NNW,327,0.0,4.0,75,0.00,,,0.00,meteohub,2013-03-01 10:20:00,
2013-03-01 04:25:00,41.9,34.5,30.08,NNW,333,1.0,4.0,75,0.00,,,0.00,meteohub,2013-03-01 10:25:00,
2013-03-01 04:30:00,41.5,34.2,30.08,NW,323,0.0,4.0,75,0.00,,,0.00,meteohub,2013-03-01 10:30:00,
2013-03-01 04:35:00,41.5,34.2,30.08,NW,312,0.0,4.0,75,0.00,,,0.00,meteohub,2013-03-01 10:35:00,
2013-03-01 04:40:00,41.5,34.2,30.08,North,0,0.0,5.0,75,0.00,,,0.00,meteohub,2013-03-01 10:40:00,
2013-03-01 04:45:00,41.5,33.8,30.08,North,5,1.0,5.0,74,0.00,,,0.00,meteohub,2013-03-01 10:45:00,
2013-03-01 04:50:00,41.5,34.2,30.08,NW,317,0.0,5.0,75,0.00,,,0.00,meteohub,2013-03-01 10:50:00,
2013-03-01 04:55:00,41.4,34.0,30.08,NW,320,0.0,6.0,75,0.00,,,0.00,meteohub,2013-03-01 10:55:00,
2013-03-01 05:00:00,41.2,33.8,30.08,NNW,327,0.0,6.0,75,0.00,,,0.00,meteohub,2013-03-01 11:00:00,
2013-03-01 05:05:00,41.2,33.4,30.09,NW,312,0.0,4.0,74,0.00,,,0.00,meteohub,2013-03-01 11:05:00,
2013-03-01 05:10:00,41.2,33.4,30.09,NW,321,0.0,4.0,74,0.00,,,0.00,meteohub,2013-03-01 11:10:00,
2013-03-01 05:15:00,40.8,33.4,30.09,NW,309,0.0,4.0,75,0.00,,,0.00,meteohub,2013-03-01 11:15:00,
2013-03-01 05:20:00,40.8,33.4,30.09,WNW,298,0.0,3.0,75,0.00,,,0.00,meteohub,2013-03-01 11:20:00,
2013-03-01 05:25:00,40.8,33.4,30.09,WNW,298,0.0,3.0,75,0.00,,,0.00,meteohub,2013-03-01 11:25:00,
2013-03-01 05:31:00,40.8,33.4,30.10,WNW,298,0.0,3.0,75,0.00,,,0.00,meteohub,2013-03-01 11:31:00,
2013-03-01 05:36:00,40.6,33.6,30.10,NW,311,1.0,2.0,76,0.00,,,0.00,meteohub,2013-03-01 11:36:00,
2013-03-01 05:41:00,40.6,33.6,30.10,NW,311,0.0,3.0,76,0.00,,,0.00,meteohub,2013-03-01 11:41:00,
2013-03-01 05:46:00,40.6,33.6,30.10,NW,311,0.0,3.0,76,0.00,,,0.00,meteohub,2013-03-01 11:46:00,
2013-03-01 05:51:00,40.6,33.6,30.10,NW,311,0.0,3.0,76,0.00,,,0.00,meteohub,2013-03-01 11:51:00,
2013-03-01 05:56:00,40.6,33.6,30.11,NW,309,0.0,1.0,76,0.00,,,0.00,meteohub,2013-03-01 11:56:00,
2013-03-01 06:01:00,40.5,33.4,30.11,NW,323,0.0,1.0,76,0.00,,,0.00,meteohub,2013-03-01 12:01:00,
2013-03-01 06:06:00,40.5,33.8,30.11,NW,313,0.0,2.0,77,0.00,,,0.00,meteohub,2013-03-01 12:06:00,
2013-03-01 06:11:00,40.5,33.8,30.10,NW,319,2.0,2.0,77,0.00,,,0.00,meteohub,2013-03-01 12:11:00,
2013-03-01 06:16:00,40.6,33.6,30.10,NW,313,0.0,3.0,76,0.00,,,0.00,meteohub,2013-03-01 12:16:00,
2013-03-01 06:21:00,40.5,33.8,30.10,WNW,300,0.0,3.0,77,0.00,,,0.00,meteohub,2013-03-01 12:21:00,
2013-03-01 06:26:00,40.5,33.8,30.10,NNW,331,1.0,3.0,77,0.00,,,0.00,meteohub,2013-03-01 12:26:00,
2013-03-01 06:31:00,40.5,33.8,30.11,WNW,299,0.0,3.0,77,0.00,,,0.00,meteohub,2013-03-01 12:31:00,
2013-03-01 06:36:00,40.5,33.8,30.11,NNW,327,3.0,3.0,77,0.00,,,0.00,meteohub,2013-03-01 12:36:00,
2013-03-01 06:41:00,40.5,33.8,30.11,NW,311,2.0,4.0,77,0.00,,,0.00,meteohub,2013-03-01 12:41:00,
2013-03-01 06:46:00,40.5,34.2,30.11,NNW,348,0.0,5.0,78,0.00,,,0.00,meteohub,2013-03-01 12:46:00,
2013-03-01 06:51:00,40.3,34.0,30.12,NNW,327,0.0,5.0,78,0.00,,,0.00,meteohub,2013-03-01 12:51:00,
2013-03-01 06:56:00,40.5,34.2,30.12,NNW,329,1.0,5.0,78,0.00,,,0.00,meteohub,2013-03-01 12:56:00,
2013-03-01 07:01:00,40.5,34.2,30.12,NW,315,2.0,3.0,78,0.00,,,0.00,meteohub,2013-03-01 13:01:00,
2013-03-01 07:06:00,40.5,34.2,30.12,NNW,331,0.0,3.0,78,0.00,,,0.00,meteohub,2013-03-01 13:06:00,
2013-03-01 07:11:00,40.5,34.5,30.12,NW,308,0.0,3.0,79,0.00,,,0.00,meteohub,2013-03-01 13:11:00,
2013-03-01 07:16:00,40.5,34.5,30.12,WNW,298,2.0,3.0,79,0.00,,,0.00,meteohub,2013-03-01 13:16:00,
2013-03-01 07:21:00,40.6,34.3,30.13,NNW,327,1.0,5.0,78,0.00,,,0.00,meteohub,2013-03-01 13:21:00,
2013-03-01 07:26:00,40.8,34.5,30.13,WNW,301,2.0,5.0,78,0.00,,,0.00,meteohub,2013-03-01 13:26:00,
2013-03-01 07:31:00,40.8,34.5,30.13,NW,320,0.0,5.0,78,0.00,,,0.00,meteohub,2013-03-01 13:31:00,
2013-03-01 07:36:00,41.0,34.7,30.13,NNW,333,0.0,3.0,78,0.00,,,0.00,meteohub,2013-03-01 13:36:00,
2013-03-01 07:41:00,41.2,34.9,30.13,NW,317,0.0,3.0,78,0.00,,,0.00,meteohub,2013-03-01 13:41:00,
2013-03-01 07:46:00,41.5,34.9,30.13,NW,309,2.0,3.0,77,0.00,,,0.00,meteohub,2013-03-01 13:46:00,
2013-03-01 07:51:00,41.7,34.7,30.14,NW,313,4.0,4.0,76,0.00,,,0.00,meteohub,2013-03-01 13:51:00,
2013-03-01 07:56:00,42.1,35.1,30.14,WNW,290,2.0,4.0,76,0.00,,,0.00,meteohub,2013-03-01 13:56:00,
2013-03-01 08:01:00,42.3,34.9,30.14,West,281,0.0,4.0,75,0.00,,,0.00,meteohub,2013-03-01 14:01:00,
2013-03-01 08:06:00,42.4,34.3,30.14,North,350,1.0,6.0,73,0.00,,,0.00,meteohub,2013-03-01 14:06:00,
2013-03-01 08:11:00,43.0,34.5,30.14,NW,305,5.0,6.0,72,0.00,,,0.00,meteohub,2013-03-01 14:11:00,
2013-03-01 08:16:00,43.2,34.3,30.14,NNW,336,1.0,6.0,71,0.00,,,0.00,meteohub,2013-03-01 14:16:00,
2013-03-01 08:21:00,43.5,34.0,30.14,NW,309,0.0,6.0,69,0.00,,,0.00,meteohub,2013-03-01 14:21:00,
2013-03-01 08:26:00,43.9,33.3,30.14,NNW,344,3.0,6.0,66,0.00,,,0.00,meteohub,2013-03-01 14:26:00,
2013-03-01 08:31:00,44.2,32.9,30.14,NNW,340,3.0,8.0,64,0.00,,,0.00,meteohub,2013-03-01 14:31:00,
2013-03-01 08:36:00,44.6,32.7,30.14,WNW,294,8.0,8.0,63,0.00,,,0.00,meteohub,2013-03-01 14:36:00,
2013-03-01 08:41:00,44.8,32.9,30.14,North,9,0.0,9.0,63,0.00,,,0.00,meteohub,2013-03-01 14:41:00,
2013-03-01 08:46:00,45.0,32.7,30.14,NE,38,4.0,9.0,62,0.00,,,0.00,meteohub,2013-03-01 14:46:00,
2013-03-01 08:51:00,45.0,32.7,30.14,NNW,340,5.0,9.0,62,0.00,,,0.00,meteohub,2013-03-01 14:51:00,
2013-03-01 08:56:00,45.1,32.9,30.14,WNW,285,1.0,8.0,62,0.00,,,0.00,meteohub,2013-03-01 14:56:00,
2013-03-01 09:01:00,45.3,33.1,30.14,NNE,30,4.0,7.0,62,0.00,,,0.00,meteohub,2013-03-01 15:01:00,
2013-03-01 09:07:00,45.7,33.4,30.14,North,5,4.0,7.0,62,0.00,,,0.00,meteohub,2013-03-01 15:07:00,
2013-03-01 09:12:00,45.9,33.3,30.14,NNE,31,1.0,6.0,61,0.00,,,0.00,meteohub,2013-03-01 15:12:00,
2013-03-01 09:17:00,46.2,33.1,30.14,North,9,2.0,6.0,60,0.00,,,0.00,meteohub,2013-03-01 15:17:00,
2013-03-01 09:22:00,46.4,33.3,30.13,NNW,347,2.0,6.0,60,0.00,,,0.00,meteohub,2013-03-01 15:22:00,
2013-03-01 09:27:00,46.4,32.9,30.13,NW,311,0.0,6.0,59,0.00,,,0.00,meteohub,2013-03-01 15:27:00,
2013-03-01 09:32:00,46.2,33.1,30.13,NNE,23,1.0,6.0,60,0.00,,,0.00,meteohub,2013-03-01 15:32:00,
2013-03-01 09:37:00,46.6,33.4,30.13,WNW,301,6.0,6.0,60,0.00,,,0.00,meteohub,2013-03-01 15:37:00,
2013-03-01 09:42:00,46.6,33.1,30.13,WNW,298,1.0,6.0,59,0.00,,,0.00,meteohub,2013-03-01 15:42:00,
2013-03-01 09:47:00,46.6,33.1,30.13,NNW,346,0.0,6.0,59,0.00,,,0.00,meteohub,2013-03-01 15:47:00,
2013-03-01 09:52:00,46.8,33.3,30.12,NNW,345,6.0,8.0,59,0.00,,,0.00,meteohub,2013-03-01 15:52:00,
2013-03-01 09:57:00,46.9,32.9,30.13,WNW,296,2.0,8.0,58,0.00,,,0.00,meteohub,2013-03-01 15:57:00,
2013-03-01 10:02:00,47.1,33.1,30.13,NNE,27,0.0,8.0,58,0.00,,,0.00,meteohub,2013-03-01 16:02:00,
2013-03-01 10:07:00,47.7,33.6,30.13,NE,40,4.0,7.0,58,0.00,,,0.00,meteohub,2013-03-01 16:07:00,
2013-03-01 10:12:00,47.8,33.8,30.13,West,279,1.0,7.0,58,0.00,,,0.00,meteohub,2013-03-01 16:12:00,
2013-03-01 10:17:00,47.8,33.8,30.13,NE,44,2.0,7.0,58,0.00,,,0.00,meteohub,2013-03-01 16:17:00,
2013-03-01 10:22:00,48.0,33.4,30.13,NNW,327,4.0,7.0,57,0.00,,,0.00,meteohub,2013-03-01 16:22:00,
2013-03-01 10:27:00,48.0,33.4,30.12,North,355,1.0,7.0,57,0.00,,,0.00,meteohub,2013-03-01 16:27:00,
2013-03-01 10:32:00,48.4,34.3,30.12,NW,305,5.0,6.0,58,0.00,,,0.00,meteohub,2013-03-01 16:32:00,
2013-03-01 10:37:00,48.4,33.8,30.12,NW,323,1.0,7.0,57,0.00,,,0.00,meteohub,2013-03-01 16:37:00,
2013-03-01 10:42:00,48.4,33.8,30.12,North,9,0.0,7.0,57,0.00,,,0.00,meteohub,2013-03-01 16:42:00,
2013-03-01 10:47:00,48.7,34.2,30.12,NW,314,5.0,7.0,57,0.00,,,0.00,meteohub,2013-03-01 16:47:00,
2013-03-01 10:52:00,48.7,34.2,30.12,West,275,6.0,7.0,57,0.00,,,0.00,meteohub,2013-03-01 16:52:00,
2013-03-01 10:57:00,48.7,33.8,30.12,WNW,298,0.0,7.0,56,0.00,,,0.00,meteohub,2013-03-01 16:57:00,
2013-03-01 11:02:00,48.9,34.0,30.11,NW,314,5.0,7.0,56,0.00,,,0.00,meteohub,2013-03-01 17:02:00,
2013-03-01 11:07:00,49.5,34.0,30.11,West,277,4.0,8.0,55,0.00,,,0.00,meteohub,2013-03-01 17:07:00,
2013-03-01 11:12:00,49.5,34.3,30.11,NNW,333,0.0,8.0,56,0.00,,,0.00,meteohub,2013-03-01 17:12:00,
2013-03-01 11:17:00,49.8,34.7,30.10,WNW,302,1.0,8.0,56,0.00,,,0.00,meteohub,2013-03-01 17:17:00,
2013-03-01 11:22:00,50.2,34.7,30.11,NW,305,0.0,7.0,55,0.00,,,0.00,meteohub,2013-03-01 17:22:00,
2013-03-01 11:27:00,50.4,34.9,30.10,WNW,292,5.0,6.0,55,0.00,,,0.00,meteohub,2013-03-01 17:27:00,
2013-03-01 11:32:00,50.5,35.1,30.09,NW,307,1.0,6.0,55,0.00,,,0.00,meteohub,2013-03-01 17:32:00,
2013-03-01 11:37:00,50.9,34.9,30.09,West,280,2.0,6.0,54,0.00,,,0.00,meteohub,2013-03-01 17:37:00,
2013-03-01 11:42:00,50.7,34.2,30.09,NNW,327,2.0,8.0,53,0.00,,,0.00,meteohub,2013-03-01 17:42:00,
2013-03-01 11:47:00,51.1,35.1,30.09,West,259,1.0,9.0,54,0.00,,,0.00,meteohub,2013-03-01 17:47:00,
2013-03-01 11:52:00,51.4,35.4,30.09,NNW,331,2.0,9.0,54,0.00,,,0.00,meteohub,2013-03-01 17:52:00,
2013-03-01 11:57:00,51.6,35.6,30.09,West,267,3.0,9.0,54,0.00,,,0.00,meteohub,2013-03-01 17:57:00,
2013-03-01 12:02:00,51.6,35.1,30.08,NW,315,3.0,12.0,53,0.00,,,0.00,meteohub,2013-03-01 18:02:00,
2013-03-01 12:07:00,51.4,34.9,30.08,WSW,258,5.0,12.0,53,0.00,,,0.00,meteohub,2013-03-01 18:07:00,
2013-03-01 12:12:00,52.0,34.9,30.08,WSW,253,5.0,12.0,52,0.00,,,0.00,meteohub,2013-03-01 18:12:00,
2013-03-01 12:17:00,52.2,35.1,30.08,SW,234,3.0,11.0,52,0.00,,,0.00,meteohub,2013-03-01 18:17:00,
2013-03-01 12:22:00,52.5,36.0,30.08,West,268,3.0,11.0,53,0.00,,,0.00,meteohub,2013-03-01 18:22:00,
2013-03-01 12:27:00,52.3,35.2,30.08,WSW,257,6.0,11.0,52,0.00,,,0.00,meteohub,2013-03-01 18:27:00,
2013-03-01 12:32:00,52.2,35.6,30.08,WSW,238,0.0,11.0,53,0.00,,,0.00,meteohub,2013-03-01 18:32:00,
2013-03-01 12:37:00,52.9,35.2,30.07,WSW,254,4.0,11.0,51,0.00,,,0.00,meteohub,2013-03-01 18:37:00,
2013-03-01 12:42:00,52.7,35.6,30.07,SW,228,4.0,8.0,52,0.00,,,0.00,meteohub,2013-03-01 18:42:00,
2013-03-01 12:47:00,52.3,34.7,30.06,West,260,2.0,9.0,51,0.00,,,0.00,meteohub,2013-03-01 18:47:00,
2013-03-01 12:52:00,52.0,34.9,30.06,NW,312,9.0,9.0,52,0.00,,,0.00,meteohub,2013-03-01 18:52:00,
2013-03-01 12:57:00,52.2,35.6,30.06,West,274,4.0,10.0,53,0.00,,,0.00,meteohub,2013-03-01 18:57:00,
2013-03-01 13:02:00,52.2,35.6,30.06,West,264,1.0,11.0,53,0.00,,,0.00,meteohub,2013-03-01 19:02:00,
2013-03-01 13:07:00,52.3,34.7,30.06,WSW,257,4.0,11.0,51,0.00,,,0.00,meteohub,2013-03-01 19:07:00,
2013-03-01 13:12:00,52.2,35.1,30.06,West,279,5.0,11.0,52,0.00,,,0.00,meteohub,2013-03-01 19:12:00,
2013-03-01 13:17:00,52.3,35.8,30.05,West,269,2.0,10.0,53,0.00,,,0.00,meteohub,2013-03-01 19:17:00,
2013-03-01 13:22:00,52.2,35.1,30.05,WSW,258,5.0,10.0,52,0.00,,,0.00,meteohub,2013-03-01 19:22:00,
2013-03-01 13:27:00,52.3,35.8,30.05,SW,233,2.0,9.0,53,0.00,,,0.00,meteohub,2013-03-01 19:27:00,
2013-03-01 13:32:00,52.7,35.1,30.05,WSW,257,2.0,9.0,51,0.00,,,0.00,meteohub,2013-03-01 19:32:00,
2013-03-01 13:37:00,52.5,35.4,30.05,West,273,9.0,12.0,52,0.00,,,0.00,meteohub,2013-03-01 19:37:00,
2013-03-01 13:42:00,52.9,35.2,30.05,SW,236,2.0,12.0,51,0.00,,,0.00,meteohub,2013-03-01 19:42:00,
2013-03-01 13:47:00,53.2,34.5,30.05,West,278,4.0,12.0,49,0.00,,,0.00,meteohub,2013-03-01 19:47:00,
2013-03-01 13:53:00,53.6,35.4,30.04,WSW,257,0.0,10.0,50,0.00,,,0.00,meteohub,2013-03-01 19:53:00,
2013-03-01 13:58:00,54.0,35.8,30.04,West,262,11.0,11.0,50,0.00,,,0.00,meteohub,2013-03-01 19:58:00,
2013-03-01 14:03:00,54.1,36.3,30.05,SSW,204,1.0,11.0,51,0.00,,,0.00,meteohub,2013-03-01 20:03:00,
2013-03-01 14:08:00,54.7,36.3,30.04,WSW,252,2.0,11.0,50,0.00,,,0.00,meteohub,2013-03-01 20:08:00,
2013-03-01 14:13:00,54.3,36.1,30.04,West,280,4.0,11.0,50,0.00,,,0.00,meteohub,2013-03-01 20:13:00,
2013-03-01 14:18:00,54.1,35.4,30.04,SW,230,2.0,8.0,49,0.00,,,0.00,meteohub,2013-03-01 20:18:00,
2013-03-01 14:23:00,54.3,37.0,30.04,SW,232,3.0,11.0,52,0.00,,,0.00,meteohub,2013-03-01 20:23:00,
2013-03-01 14:28:00,54.7,38.3,30.04,SSW,197,1.0,11.0,54,0.00,,,0.00,meteohub,2013-03-01 20:28:00,
2013-03-01 14:33:00,54.5,37.8,30.04,WSW,250,2.0,11.0,53,0.00,,,0.00,meteohub,2013-03-01 20:33:00,
2013-03-01 14:38:00,54.7,38.3,30.04,WSW,246,2.0,11.0,54,0.00,,,0.00,meteohub,2013-03-01 20:38:00,
2013-03-01 14:43:00,54.5,38.1,30.03,WSW,240,5.0,9.0,54,0.00,,,0.00,meteohub,2013-03-01 20:43:00,
2013-03-01 14:48:00,54.3,37.9,30.03,SSW,211,3.0,9.0,54,0.00,,,0.00,meteohub,2013-03-01 20:48:00,
2013-03-01 14:53:00,54.1,37.9,30.03,SSW,209,3.0,9.0,54,0.00,,,0.00,meteohub,2013-03-01 20:53:00,
2013-03-01 14:58:00,54.0,38.1,30.03,SW,234,6.0,8.0,55,0.00,,,0.00,meteohub,2013-03-01 20:58:00,
2013-03-01 15:03:00,54.0,38.7,30.03,SW,225,3.0,9.0,56,0.00,,,0.00,meteohub,2013-03-01 21:03:00,
2013-03-01 15:08:00,54.3,39.0,30.03,SW,219,4.0,9.0,56,0.00,,,0.00,meteohub,2013-03-01 21:08:00,
2013-03-01 15:13:00,54.5,39.2,30.03,SSW,198,7.0,9.0,56,0.00,,,0.00,meteohub,2013-03-01 21:13:00,
2013-03-01 15:18:00,54.5,38.7,30.03,SW,231,2.0,7.0,55,0.00,,,0.00,meteohub,2013-03-01 21:18:00,
2013-03-01 15:23:00,54.5,39.6,30.03,SW,223,0.0,10.0,57,0.00,,,0.00,meteohub,2013-03-01 21:23:00,
2013-03-01 15:28:00,54.9,39.4,30.03,SSW,209,7.0,11.0,56,0.00,,,0.00,meteohub,2013-03-01 21:28:00,
2013-03-01 15:33:00,54.9,39.4,30.02,WSW,240,2.0,11.0,56,0.00,,,0.00,meteohub,2013-03-01 21:33:00,
2013-03-01 15:38:00,54.7,39.4,30.02,SSW,195,3.0,10.0,56,0.00,,,0.00,meteohub,2013-03-01 21:38:00,
2013-03-01 15:43:00,54.7,39.4,30.02,SW,217,2.0,10.0,56,0.00,,,0.00,meteohub,2013-03-01 21:43:00,
2013-03-01 15:48:00,54.7,39.7,30.02,SSW,209,5.0,7.0,57,0.00,,,0.00,meteohub,2013-03-01 21:48:00,
2013-03-01 15:53:00,54.3,39.4,30.02,West,261,3.0,7.0,57,0.00,,,0.00,meteohub,2013-03-01 21:53:00,
2013-03-01 15:58:00,54.3,40.3,30.02,SSW,209,1.0,8.0,59,0.00,,,0.00,meteohub,2013-03-01 21:58:00,
2013-03-01 16:03:00,54.3,40.3,30.02,SW,223,3.0,8.0,59,0.00,,,0.00,meteohub,2013-03-01 22:03:00,
2013-03-01 16:08:00,54.1,40.6,30.02,SSW,212,2.0,8.0,60,0.00,,,0.00,meteohub,2013-03-01 22:08:00,
2013-03-01 16:14:00,54.0,40.5,30.02,SSW,207,2.0,7.0,60,0.00,,,0.00,meteohub,2013-03-01 22:14:00,
2013-03-01 16:18:00,54.0,40.8,30.02,SW,228,4.0,7.0,61,0.00,,,0.00,meteohub,2013-03-01 22:18:00,
2013-03-01 16:24:00,54.0,40.8,30.03,SW,225,1.0,7.0,61,0.00,,,0.00,meteohub,2013-03-01 22:24:00,
2013-03-01 16:29:00,54.0,40.8,30.03,SSW,207,7.0,7.0,61,0.00,,,0.00,meteohub,2013-03-01 22:29:00,
2013-03-01 16:34:00,54.0,41.2,30.03,SW,215,0.0,7.0,62,0.00,,,0.00,meteohub,2013-03-01 22:34:00,
2013-03-01 16:39:00,54.1,41.4,30.03,SW,227,2.0,8.0,62,0.00,,,0.00,meteohub,2013-03-01 22:39:00,
2013-03-01 16:44:00,54.1,41.4,30.03,West,275,0.0,8.0,62,0.00,,,0.00,meteohub,2013-03-01 22:44:00,
2013-03-01 16:49:00,54.1,41.0,30.03,SW,217,0.0,7.0,61,0.00,,,0.00,meteohub,2013-03-01 22:49:00,
2013-03-01 16:54:00,54.0,40.8,30.03,SW,215,0.0,5.0,61,0.00,,,0.00,meteohub,2013-03-01 22:54:00,
2013-03-01 16:59:00,53.8,41.0,30.02,SSW,211,0.0,4.0,62,0.00,,,0.00,meteohub,2013-03-01 22:59:00,
2013-03-01 17:04:00,53.8,41.5,30.02,SSW,211,0.0,4.0,63,0.00,,,0.00,meteohub,2013-03-01 23:04:00,
2013-03-01 17:09:00,53.6,41.4,30.03,WSW,246,0.0,4.0,63,0.00,,,0.00,meteohub,2013-03-01 23:09:00,
2013-03-01 17:14:00,53.4,41.2,30.03,WSW,246,0.0,2.0,63,0.00,,,0.00,meteohub,2013-03-01 23:14:00,
2013-03-01 17:19:00,53.2,40.6,30.03,WSW,241,0.0,2.0,62,0.00,,,0.00,meteohub,2013-03-01 23:19:00,
2013-03-01 17:24:00,53.1,40.5,30.03,West,269,0.0,2.0,62,0.00,,,0.00,meteohub,2013-03-01 23:24:00,
2013-03-01 17:29:00,52.9,40.6,30.03,West,268,0.0,3.0,63,0.00,,,0.00,meteohub,2013-03-01 23:29:00,
2013-03-01 17:34:00,52.5,40.6,30.03,West,268,0.0,3.0,64,0.00,,,0.00,meteohub,2013-03-01 23:34:00,
2013-03-01 17:39:00,52.5,41.2,30.03,West,268,0.0,3.0,65,0.00,,,0.00,meteohub,2013-03-01 23:39:00,
2013-03-01 17:44:00,52.3,41.7,30.03,West,267,0.0,1.0,67,0.00,,,0.00,meteohub,2013-03-01 23:44:00,
2013-03-01 17:49:00,52.0,41.7,30.04,West,268,0.0,0.0,68,0.00,,,0.00,meteohub,2013-03-01 23:49:00,
2013-03-01 17:54:00,51.6,41.4,30.04,West,265,0.0,0.0,68,0.00,,,0.00,meteohub,2013-03-01 23:54:00,
2013-03-01 17:59:00,51.3,41.4,30.04,SW,227,0.0,1.0,69,0.00,,,0.00,meteohub,2013-03-01 23:59:00,
2013-03-01 18:04:00,50.7,41.4,30.04,SSW,211,2.0,2.0,70,0.00,,,0.00,meteohub,2013-03-02 00:04:00,
2013-03-01 18:09:00,50.5,41.5,30.04,SSW,211,0.0,3.0,71,0.00,,,0.00,meteohub,2013-03-02 00:09:00,
2013-03-01 18:14:00,50.4,41.4,30.04,SSW,211,0.0,3.0,71,0.00,,,0.00,meteohub,2013-03-02 00:14:00,
2013-03-01 18:19:00,50.4,41.4,30.05,SSW,213,0.0,3.0,71,0.00,,,0.00,meteohub,2013-03-02 00:19:00,
2013-03-01 18:24:00,50.4,41.4,30.05,SW,232,0.0,2.0,71,0.00,,,0.00,meteohub,2013-03-02 00:24:00,
2013-03-01 18:29:00,50.2,41.5,30.05,WSW,239,0.0,2.0,72,0.00,,,0.00,meteohub,2013-03-02 00:29:00,
2013-03-01 18:34:00,50.2,41.5,30.05,West,262,0.0,2.0,72,0.00,,,0.00,meteohub,2013-03-02 00:34:00,
2013-03-01 18:39:00,50.2,41.5,30.05,WSW,240,0.0,2.0,72,0.00,,,0.00,meteohub,2013-03-02 00:39:00,
2013-03-01 18:44:00,50.2,41.2,30.05,West,269,0.0,2.0,71,0.00,,,0.00,meteohub,2013-03-02 00:44:00,
2013-03-01 18:49:00,50.4,41.4,30.05,WSW,258,1.0,4.0,71,0.00,,,0.00,meteohub,2013-03-02 00:49:00,
2013-03-01 18:54:00,50.4,41.0,30.06,West,265,2.0,4.0,70,0.00,,,0.00,meteohub,2013-03-02 00:54:00,
2013-03-01 18:59:00,50.7,41.0,30.06,WNW,300,0.0,4.0,69,0.00,,,0.00,meteohub,2013-03-02 00:59:00,
2013-03-01 19:04:00,50.7,41.0,30.06,WNW,303,0.0,5.0,69,0.00,,,0.00,meteohub,2013-03-02 01:04:00,
2013-03-01 19:09:00,50.7,41.0,30.05,WNW,302,0.0,5.0,69,0.00,,,0.00,meteohub,2013-03-02 01:09:00,
2013-03-01 19:14:00,50.4,41.4,30.06,WNW,297,0.0,5.0,71,0.00,,,0.00,meteohub,2013-03-02 01:14:00,
2013-03-01 19:19:00,49.8,40.8,30.06,West,271,0.0,1.0,71,0.00,,,0.00,meteohub,2013-03-02 01:19:00,
2013-03-01 19:24:00,49.6,41.0,30.06,West,271,0.0,2.0,72,0.00,,,0.00,meteohub,2013-03-02 01:24:00,
2013-03-01 19:29:00,49.3,41.0,30.06,West,271,0.0,2.0,73,0.00,,,0.00,meteohub,2013-03-02 01:29:00,
2013-03-01 19:34:00,48.9,41.0,30.06,West,271,0.0,2.0,74,0.00,,,0.00,meteohub,2013-03-02 01:34:00,
2013-03-01 19:39:00,48.7,41.5,30.07,NW,305,0.0,2.0,76,0.00,,,0.00,meteohub,2013-03-02 01:39:00,
2013-03-01 19:44:00,48.7,41.2,30.07,WNW,301,0.0,0.0,75,0.00,,,0.00,meteohub,2013-03-02 01:44:00,
2013-03-01 19:49:00,48.6,41.0,30.07,WNW,300,0.0,3.0,75,0.00,,,0.00,meteohub,2013-03-02 01:49:00,
2013-03-01 19:54:00,48.4,40.8,30.07,WNW,300,0.0,3.0,75,0.00,,,0.00,meteohub,2013-03-02 01:54:00,
2013-03-01 19:59:00,48.4,40.8,30.07,WNW,300,0.0,3.0,75,0.00,,,0.00,meteohub,2013-03-02 01:59:00,
2013-03-01 20:04:00,48.2,40.6,30.07,WNW,300,0.0,1.0,75,0.00,,,0.00,meteohub,2013-03-02 02:04:00,
2013-03-01 20:10:00,47.8,40.6,30.08,WNW,300,0.0,1.0,76,0.00,,,0.00,meteohub,2013-03-02 02:10:00,
2013-03-01 20:15:00,47.7,40.8,30.08,WNW,300,0.0,0.0,77,0.00,,,0.00,meteohub,2013-03-02 02:15:00,
2013-03-01 20:20:00,47.3,40.1,30.08,NNW,344,0.0,0.0,76,0.00,,,0.00,meteohub,2013-03-02 02:20:00,
2013-03-01 20:25:00,47.1,40.3,30.08,NW,309,0.0,2.0,77,0.00,,,0.00,meteohub,2013-03-02 02:25:00,
2013-03-01 20:30:00,46.9,40.1,30.09,NW,309,0.0,3.0,77,0.00,,,0.00,meteohub,2013-03-02 02:30:00,
2013-03-01 20:35:00,46.8,40.3,30.08,NW,304,0.0,3.0,78,0.00,,,0.00,meteohub,2013-03-02 02:35:00,
2013-03-01 20:40:00,46.4,39.9,30.09,NW,304,0.0,3.0,78,0.00,,,0.00,meteohub,2013-03-02 02:40:00,
2013-03-01 20:45:00,46.0,39.6,30.09,NW,304,0.0,0.0,78,0.00,,,0.00,meteohub,2013-03-02 02:45:00,
2013-03-01 20:50:00,45.9,39.4,30.09,NW,304,0.0,1.0,78,0.00,,,0.00,meteohub,2013-03-02 02:50:00,
2013-03-01 20:55:00,45.9,38.7,30.09,NW,304,0.0,1.0,76,0.00,,,0.00,meteohub,2013-03-02 02:55:00,
2013-03-01 21:00:00,45.9,38.3,30.09,NW,305,0.0,1.0,75,0.00,,,0.00,meteohub,2013-03-02 03:00:00,
2013-03-01 21:05:00,45.9,38.3,30.09,WNW,296,0.0,1.0,75,0.00,,,0.00,meteohub,2013-03-02 03:05:00,
2013-03-01 21:10:00,45.7,38.3,30.09,WNW,296,1.0,1.0,75,0.00,,,0.00,meteohub,2013-03-02 03:10:00,
2013-03-01 21:15:00,45.1,37.8,30.10,WNW,299,0.0,1.0,75,0.00,,,0.00,meteohub,2013-03-02 03:15:00,
2013-03-01 21:20:00,45.0,37.6,30.10,WNW,303,1.0,2.0,75,0.00,,,0.00,meteohub,2013-03-02 03:20:00,
2013-03-01 21:25:00,45.0,37.2,30.10,NW,326,0.0,2.0,74,0.00,,,0.00,meteohub,2013-03-02 03:25:00,
2013-03-01 21:30:00,45.0,37.2,30.10,NW,326,0.0,3.0,74,0.00,,,0.00,meteohub,2013-03-02 03:30:00,
2013-03-01 21:35:00,44.8,37.0,30.11,NW,325,0.0,4.0,74,0.00,,,0.00,meteohub,2013-03-02 03:35:00,
2013-03-01 21:40:00,44.6,36.9,30.11,NW,324,1.0,5.0,74,0.00,,,0.00,meteohub,2013-03-02 03:40:00,
2013-03-01 21:45:00,44.4,36.3,30.11,NW,309,0.0,5.0,73,0.00,,,0.00,meteohub,2013-03-02 03:45:00,
2013-03-01 21:50:00,44.4,36.3,30.12,NNW,347,3.0,5.0,73,0.00,,,0.00,meteohub,2013-03-02 03:50:00,
2013-03-01 21:55:00,44.4,36.3,30.12,NW,319,1.0,5.0,73,0.00,,,0.00,meteohub,2013-03-02 03:55:00,
2013-03-01 22:00:00,44.2,35.8,30.12,North,355,1.0,5.0,72,0.00,,,0.00,meteohub,2013-03-02 04:00:00,
2013-03-01 22:05:00,44.2,35.8,30.12,WNW,294,1.0,4.0,72,0.00,,,0.00,meteohub,2013-03-02 04:05:00,
2013-03-01 22:10:00,44.2,35.8,30.12,NNW,340,1.0,6.0,72,0.00,,,0.00,meteohub,2013-03-02 04:10:00,
2013-03-01 22:15:00,44.1,35.6,30.12,WNW,298,0.0,6.0,72,0.00,,,0.00,meteohub,2013-03-02 04:15:00,
2013-03-01 22:20:00,44.1,35.6,30.12,North,349,4.0,5.0,72,0.00,,,0.00,meteohub,2013-03-02 04:20:00,
2013-03-01 22:25:00,43.9,35.4,30.12,WNW,292,2.0,8.0,72,0.00,,,0.00,meteohub,2013-03-02 04:25:00,
2013-03-01 22:30:00,43.9,35.1,30.12,North,5,2.0,8.0,71,0.00,,,0.00,meteohub,2013-03-02 04:30:00,
2013-03-01 22:35:00,43.9,35.1,30.12,North,9,5.0,9.0,71,0.00,,,0.00,meteohub,2013-03-02 04:35:00,
2013-03-01 22:40:00,43.5,35.1,30.13,West,276,1.0,9.0,72,0.00,,,0.00,meteohub,2013-03-02 04:40:00,
2013-03-01 22:45:00,43.3,34.9,30.13,NW,315,3.0,9.0,72,0.00,,,0.00,meteohub,2013-03-02 04:45:00,
2013-03-01 22:50:00,43.3,34.9,30.13,NNW,342,8.0,8.0,72,0.00,,,0.00,meteohub,2013-03-02 04:50:00,
2013-03-01 22:55:00,43.3,34.9,30.13,NNW,333,2.0,8.0,72,0.00,,,0.00,meteohub,2013-03-02 04:55:00,
2013-03-01 23:00:00,43.2,34.7,30.13,North,355,2.0,8.0,72,0.00,,,0.00,meteohub,2013-03-02 05:00:00,
2013-03-01 23:05:00,43.0,34.9,30.13,WNW,292,2.0,8.0,73,0.00,,,0.00,meteohub,2013-03-02 05:05:00,
2013-03-01 23:10:00,42.6,34.5,30.13,West,275,0.0,7.0,73,0.00,,,0.00,meteohub,2013-03-02 05:10:00,
2013-03-01 23:15:00,42.4,34.7,30.13,NW,318,1.0,9.0,74,0.00,,,0.00,meteohub,2013-03-02 05:15:00,
2013-03-01 23:20:00,42.3,34.5,30.14,NW,319,0.0,9.0,74,0.00,,,0.00,meteohub,2013-03-02 05:20:00,
2013-03-01 23:25:00,42.1,34.7,30.14,WNW,284,1.0,9.0,75,0.00,,,0.00,meteohub,2013-03-02 05:25:00,
2013-03-01 23:30:00,41.7,34.3,30.14,WNW,288,5.0,8.0,75,0.00,,,0.00,meteohub,2013-03-02 05:30:00,
2013-03-01 23:35:00,41.7,34.3,30.14,NNE,17,1.0,11.0,75,0.00,,,0.00,meteohub,2013-03-02 05:35:00,
2013-03-01 23:40:00,41.4,34.0,30.14,NW,309,5.0,11.0,75,0.00,,,0.00,meteohub,2013-03-02 05:40:00,
2013-03-01 23:45:00,41.4,34.0,30.14,WNW,303,6.0,9.0,75,0.00,,,0.00,meteohub,2013-03-02 05:45:00,
2013-03-01 23:50:00,41.4,34.0,30.14,NNW,327,1.0,12.0,75,0.00,,,0.00,meteohub,2013-03-02 05:50:00,
2013-03-01 23:55:00,41.2,33.8,30.14,NNW,332,1.0,12.0,75,0.00,,,0.00,meteohub,2013-03-02 05:55:00,